Time,TemperatureF,DewpointF,PressureIn,WindDirection,WindDirectionDegrees,WindSpeedMPH,WindSpeedGustMPH,Humidity,HourlyPrecipIn,Conditions,Clouds,dailyrainin,SoftwareType,DateUTC
2013-01-20 00:02:00,35.0,0.0,30.02,WNW,292,10.0,21.0,22,0.00,,,0.00,,2013-01-20 06:02:00,
2013-01-20 00:12:00,35.0,0.0,30.02,WNW,292,10.0,21.0,22,0.00,,,0.00,,2013-01-20 06:12:00,
2013-01-20 00:22:00,33.0,8.0,30.06,WSW,248,6.0,14.0,35,0.00,,,0.00,,2013-01-20 06:22:00,
2013-01-20 00:33:00,31.0,5.0,30.07,West,260,6.0,10.0,33,0.00,,,0.00,,2013-01-20 06:33:00,
2013-01-20 00:42:00,31.0,5.0,30.07,West,260,6.0,10.0,33,0.00,,,0.00,,2013-01-20 06:42:00,
2013-01-20 00:53:00,29.0,4.0,30.09,WSW,248,6.0,7.0,33,0.00,,,0.00,,2013-01-20 06:53:00,
2013-01-20 01:02:00,28.0,0.0,30.11,SW,221,6.0,13.0,29,0.00,,,0.00,,2013-01-20 07:02:00,
2013-01-20 01:12:00,28.0,0.0,30.11,SW,221,6.0,13.0,29,0.00,,,0.00,,2013-01-20 07:12:00,
2013-01-20 01:22:00,27.0,-9.0,30.11,WNW,292,7.0,8.0,20,0.00,,,0.00,,2013-01-20 07:22:00,
2013-01-20 01:32:00,26.0,-11.0,30.14,West,270,2.0,10.0,19,0.00,,,0.00,,2013-01-20 07:32:00,
2013-01-20 01:42:00,26.0,-11.0,30.14,West,270,2.0,10.0,19,0.00,,,0.00,,2013-01-20 07:42:00,
2013-01-20 01:52:00,24.0,-12.0,30.16,WNW,292,6.0,13.0,19,0.00,,,0.00,,2013-01-20 07:52:00,
2013-01-20 02:02:00,23.0,-13.0,30.17,WNW,292,11.0,18.0,19,0.00,,,0.00,,2013-01-20 08:02:00,
2013-01-20 02:12:00,23.0,-13.0,30.17,WNW,292,11.0,18.0,19,0.00,,,0.00,,2013-01-20 08:12:00,
2013-01-20 02:22:00,22.0,-14.0,30.18,WNW,292,7.0,10.0,19,0.00,,,0.00,,2013-01-20 08:22:00,
2013-01-20 02:32:00,22.0,-14.0,30.19,West,270,8.0,14.0,19,0.00,,,0.00,,2013-01-20 08:32:00,
2013-01-20 02:42:00,22.0,-14.0,30.19,West,270,8.0,14.0,19,0.00,,,0.00,,2013-01-20 08:42:00,
2013-01-20 02:52:00,20.0,-16.0,30.20,WNW,292,6.0,9.0,19,0.00,,,0.00,,2013-01-20 08:52:00,
2013-01-20 03:02:00,20.0,-16.0,30.22,West,270,6.0,10.0,19,0.00,,,0.00,,2013-01-20 09:02:00,
2013-01-20 03:12:00,20.0,-16.0,30.22,West,270,6.0,10.0,19,0.00,,,0.00,,2013-01-20 09:12:00,
2013-01-20 03:22:00,19.0,-16.0,30.23,SW,235,10.0,14.0,19,0.00,,,0.00,,2013-01-20 09:22:00,
2013-01-20 03:33:00,19.0,-16.0,30.24,West,270,7.0,8.0,19,0.00,,,0.00,,2013-01-20 09:33:00,
2013-01-20 03:42:00,19.0,-16.0,30.24,West,270,7.0,8.0,19,0.00,,,0.00,,2013-01-20 09:42:00,
2013-01-20 03:53:00,18.0,-16.0,30.24,WNW,290,3.0,10.0,20,0.00,,,0.00,,2013-01-20 09:53:00,
2013-01-20 04:02:00,18.0,-13.0,30.26,WNW,292,5.0,8.0,24,0.00,,,0.00,,2013-01-20 10:02:00,
2013-01-20 04:12:00,18.0,-13.0,30.26,WNW,292,5.0,8.0,24,0.00,,,0.00,,2013-01-20 10:12:00,
2013-01-20 04:22:00,17.0,-9.0,30.27,WNW,298,7.0,8.0,30,0.00,,,0.00,,2013-01-20 10:22:00,
2013-01-20 04:32:00,17.0,-8.0,30.27,WNW,292,0.0,6.0,32,0.00,,,0.00,,2013-01-20 10:32:00,
2013-01-20 04:42:00,17.0,-8.0,30.27,WNW,292,0.0,6.0,32,0.00,,,0.00,,2013-01-20 10:42:00,
2013-01-20 04:52:00,17.0,-8.0,30.28,WSW,250,5.0,9.0,32,0.00,,,0.00,,2013-01-20 10:52:00,
2013-01-20 05:02:00,17.0,-8.0,30.28,WSW,250,5.0,9.0,32,0.00,,,0.00,,2013-01-20 11:02:00,
2013-01-20 05:12:00,17.0,-8.0,30.28,WSW,250,5.0,9.0,32,0.00,,,0.00,,2013-01-20 11:12:00,
2013-01-20 05:22:00,15.0,-10.0,30.29,WNW,292,2.0,10.0,31,0.00,,,0.00,,2013-01-20 11:22:00,
2013-01-20 05:32:00,15.0,-9.0,30.30,West,270,4.0,7.0,33,0.00,,,0.00,,2013-01-20 11:32:00,
2013-01-20 05:43:00,15.0,-9.0,30.30,West,270,4.0,7.0,33,0.00,,,0.00,,2013-01-20 11:43:00,
2013-01-20 05:53:00,15.0,-8.0,30.32,WNW,292,2.0,7.0,34,0.00,,,0.00,,2013-01-20 11:53:00,
2013-01-20 06:03:00,14.0,-9.0,30.32,WNW,292,3.0,7.0,35,0.00,,,0.00,,2013-01-20 12:03:00,
2013-01-20 06:12:00,14.0,-9.0,30.32,WNW,292,3.0,7.0,35,0.00,,,0.00,,2013-01-20 12:12:00,
2013-01-20 06:23:00,14.0,-9.0,30.33,WNW,292,5.0,10.0,35,0.00,,,0.00,,2013-01-20 12:23:00,
2013-01-20 06:33:00,14.0,-10.0,30.34,SW,233,5.0,9.0,33,0.00,,,0.00,,2013-01-20 12:33:00,
2013-01-20 06:43:00,14.0,-10.0,30.34,SW,233,5.0,9.0,33,0.00,,,0.00,,2013-01-20 12:43:00,
2013-01-20 06:53:00,13.0,-9.0,30.36,WNW,292,0.0,0.0,35,0.00,,,0.00,,2013-01-20 12:53:00,
2013-01-20 07:02:00,13.0,-9.0,30.36,WNW,292,0.0,9.0,35,0.00,,,0.00,,2013-01-20 13:02:00,
2013-01-20 07:12:00,13.0,-9.0,30.36,WNW,292,0.0,9.0,35,0.00,,,0.00,,2013-01-20 13:12:00,
2013-01-20 07:23:00,13.0,-9.0,30.37,WNW,292,2.0,6.0,36,0.00,,,0.00,,2013-01-20 13:23:00,
2013-01-20 07:33:00,12.0,-10.0,30.37,West,270,0.0,2.0,36,0.00,,,0.00,,2013-01-20 13:33:00,
2013-01-20 07:42:00,12.0,-10.0,30.37,West,270,0.0,2.0,36,0.00,,,0.00,,2013-01-20 13:42:00,
2013-01-20 07:53:00,12.0,-9.0,30.39,WNW,292,0.0,5.0,37,0.00,,,0.00,,2013-01-20 13:53:00,
2013-01-20 08:02:00,12.0,-9.0,30.40,West,262,0.0,7.0,37,0.00,,,0.00,,2013-01-20 14:02:00,
2013-01-20 08:12:00,12.0,-9.0,30.40,West,262,0.0,7.0,37,0.00,,,0.00,,2013-01-20 14:12:00,
2013-01-20 08:22:00,12.0,-9.0,30.41,WNW,292,0.0,7.0,38,0.00,,,0.00,,2013-01-20 14:22:00,
2013-01-20 08:32:00,13.0,-8.0,30.41,NW,315,0.0,7.0,37,0.00,,,0.00,,2013-01-20 14:32:00,
2013-01-20 08:42:00,13.0,-8.0,30.41,NW,315,0.0,7.0,37,0.00,,,0.00,,2013-01-20 14:42:00,
2013-01-20 08:53:00,14.0,-9.0,30.42,WNW,292,0.0,7.0,35,0.00,,,0.00,,2013-01-20 14:53:00,
2013-01-20 09:03:00,14.0,-9.0,30.42,WNW,292,0.0,7.0,35,0.00,,,0.00,,2013-01-20 15:03:00,
2013-01-20 09:12:00,14.0,-9.0,30.42,WNW,292,0.0,7.0,35,0.00,,,0.00,,2013-01-20 15:12:00,
2013-01-20 09:23:00,14.0,-9.0,30.43,WSW,249,2.0,5.0,35,0.00,,,0.00,,2013-01-20 15:23:00,
2013-01-20 09:33:00,14.0,-9.0,30.43,NW,315,8.0,8.0,35,0.00,,,0.00,,2013-01-20 15:33:00,
2013-01-20 09:43:00,14.0,-9.0,30.43,NW,315,8.0,8.0,35,0.00,,,0.00,,2013-01-20 15:43:00,
2013-01-20 09:53:00,15.0,-11.0,30.43,WSW,248,1.0,7.0,30,0.00,,,0.00,,2013-01-20 15:53:00,
2013-01-20 10:02:00,16.0,-10.0,30.44,SW,225,2.0,2.0,30,0.00,,,0.00,,2013-01-20 16:02:00,
2013-01-20 10:12:00,16.0,-10.0,30.44,SW,225,2.0,2.0,30,0.00,,,0.00,,2013-01-20 16:12:00,
2013-01-20 10:23:00,17.0,-12.0,30.45,WNW,292,0.0,8.0,26,0.00,,,0.00,,2013-01-20 16:23:00,
2013-01-20 10:33:00,17.0,-13.0,30.45,WNW,292,0.0,3.0,24,0.00,,,0.00,,2013-01-20 16:33:00,
2013-01-20 10:42:00,17.0,-13.0,30.45,WNW,292,0.0,3.0,24,0.00,,,0.00,,2013-01-20 16:42:00,
2013-01-20 10:53:00,18.0,-16.0,30.44,West,270,1.0,10.0,20,0.00,,,0.00,,2013-01-20 16:53:00,
2013-01-20 11:03:00,19.0,-16.0,30.44,West,270,0.0,3.0,19,0.00,,,0.00,,2013-01-20 17:03:00,
2013-01-20 11:12:00,19.0,-16.0,30.44,West,270,0.0,3.0,19,0.00,,,0.00,,2013-01-20 17:12:00,
2013-01-20 11:22:00,19.0,-16.0,30.43,NW,315,1.0,5.0,19,0.00,,,0.00,,2013-01-20 17:22:00,
2013-01-20 11:33:00,20.0,-16.0,30.42,West,270,1.0,9.0,19,0.00,,,0.00,,2013-01-20 17:33:00,
2013-01-20 11:42:00,20.0,-16.0,30.42,West,270,1.0,9.0,19,0.00,,,0.00,,2013-01-20 17:42:00,
2013-01-20 11:53:00,22.0,-14.0,30.41,WNW,300,1.0,8.0,19,0.00,,,0.00,,2013-01-20 17:53:00,
2013-01-20 12:02:00,22.0,-14.0,30.41,North,0,3.0,5.0,19,0.00,,,0.00,,2013-01-20 18:02:00,
2013-01-20 12:12:00,26.0,-11.0,30.41,NW,321,3.0,7.0,19,0.00,,,0.00,,2013-01-20 18:12:00,
2013-01-20 12:23:00,26.0,-11.0,30.41,NW,321,3.0,7.0,19,0.00,,,0.00,,2013-01-20 18:23:00,
2013-01-20 12:33:00,26.0,-11.0,30.40,WNW,292,1.0,7.0,19,0.00,,,0.00,,2013-01-20 18:33:00,
2013-01-20 12:43:00,26.0,-11.0,30.40,WNW,292,1.0,7.0,19,0.00,,,0.00,,2013-01-20 18:43:00,
2013-01-20 12:53:00,25.0,-11.0,30.40,West,271,3.0,10.0,19,0.00,,,0.00,,2013-01-20 18:53:00,
2013-01-20 13:02:00,22.0,-14.0,30.40,West,270,0.0,10.0,19,0.00,,,0.00,,2013-01-20 19:02:00,
2013-01-20 13:12:00,22.0,-14.0,30.40,West,270,0.0,10.0,19,0.00,,,0.00,,2013-01-20 19:12:00,
2013-01-20 13:22:00,22.0,-14.0,30.40,West,274,1.0,5.0,19,0.00,,,0.00,,2013-01-20 19:22:00,
2013-01-20 13:33:00,22.0,-14.0,30.40,WNW,295,0.0,9.0,19,0.00,,,0.00,,2013-01-20 19:33:00,
2013-01-20 13:42:00,22.0,-14.0,30.40,WNW,295,0.0,9.0,19,0.00,,,0.00,,2013-01-20 19:42:00,
2013-01-20 13:53:00,22.0,-14.0,30.40,NW,310,0.0,7.0,19,0.00,,,0.00,,2013-01-20 19:53:00,
2013-01-20 14:03:00,22.0,-14.0,30.40,WSW,253,7.0,7.0,19,0.00,,,0.00,,2013-01-20 20:03:00,
2013-01-20 14:12:00,22.0,-14.0,30.40,WSW,253,7.0,7.0,19,0.00,,,0.00,,2013-01-20 20:12:00,
2013-01-20 14:22:00,26.0,-11.0,30.40,West,270,2.0,9.0,19,0.00,,,0.00,,2013-01-20 20:22:00,
2013-01-20 14:33:00,25.0,-11.0,30.40,WSW,257,2.0,8.0,19,0.00,,,0.00,,2013-01-20 20:33:00,
2013-01-20 14:42:00,25.0,-11.0,30.40,WSW,257,2.0,8.0,19,0.00,,,0.00,,2013-01-20 20:42:00,
2013-01-20 14:53:00,24.0,-12.0,30.39,WNW,292,0.0,0.0,19,0.00,,,0.00,,2013-01-20 20:53:00,
2013-01-20 15:03:00,23.0,-13.0,30.39,WNW,284,0.0,0.0,19,0.00,,,0.00,,2013-01-20 21:03:00,
2013-01-20 15:13:00,23.0,-13.0,30.39,WNW,284,0.0,0.0,19,0.00,,,0.00,,2013-01-20 21:13:00,
2013-01-20 15:23:00,22.0,-14.0,30.40,WSW,248,5.0,5.0,19,0.00,,,0.00,,2013-01-20 21:23:00,
2013-01-20 15:33:00,21.0,-15.0,30.40,WSW,248,1.0,6.0,19,0.00,,,0.00,,2013-01-20 21:33:00,
2013-01-20 15:43:00,21.0,-15.0,30.40,WSW,248,1.0,6.0,19,0.00,,,0.00,,2013-01-20 21:43:00,
2013-01-20 15:53:00,22.0,-14.0,30.40,WSW,248,1.0,2.0,19,0.00,,,0.00,,2013-01-20 21:53:00,
2013-01-20 16:03:00,22.0,-14.0,30.40,WNW,292,0.0,5.0,19,0.00,,,0.00,,2013-01-20 22:03:00,
2013-01-20 16:12:00,22.0,-14.0,30.40,WNW,292,0.0,5.0,19,0.00,,,0.00,,2013-01-20 22:12:00,
2013-01-20 16:22:00,20.0,-16.0,30.39,WNW,292,0.0,5.0,19,0.00,,,0.00,,2013-01-20 22:22:00,
2013-01-20 16:33:00,20.0,-16.0,30.40,WNW,292,0.0,0.0,19,0.00,,,0.00,,2013-01-20 22:33:00,
2013-01-20 16:43:00,20.0,-16.0,30.40,WNW,292,0.0,0.0,19,0.00,,,0.00,,2013-01-20 22:43:00,
2013-01-20 16:53:00,18.0,-17.0,30.40,WSW,253,0.0,0.0,19,0.00,,,0.00,,2013-01-20 22:53:00,
2013-01-20 17:03:00,18.0,-17.0,30.40,SW,225,2.0,8.0,19,0.00,,,0.00,,2013-01-20 23:03:00,
2013-01-20 17:13:00,18.0,-17.0,30.40,SW,225,2.0,8.0,19,0.00,,,0.00,,2013-01-20 23:13:00,
2013-01-20 17:23:00,18.0,-17.0,30.40,WSW,248,0.0,3.0,19,0.00,,,0.00,,2013-01-20 23:23:00,
2013-01-20 17:33:00,18.0,-17.0,30.41,SW,220,0.0,3.0,19,0.00,,,0.00,,2013-01-20 23:33:00,
2013-01-20 17:42:00,18.0,-17.0,30.41,SW,220,0.0,3.0,19,0.00,,,0.00,,2013-01-20 23:42:00,
2013-01-20 17:53:00,18.0,-17.0,30.40,SSW,202,0.0,5.0,19,0.00,,,0.00,,2013-01-20 23:53:00,
2013-01-20 18:03:00,18.0,-17.0,30.40,SSW,202,1.0,5.0,19,0.00,,,0.00,,2013-01-21 00:03:00,
2013-01-20 18:13:00,18.0,-17.0,30.40,SSW,202,1.0,5.0,19,0.00,,,0.00,,2013-01-21 00:13:00,
2013-01-20 18:22:00,17.0,-18.0,30.41,WSW,248,2.0,3.0,19,0.00,,,0.00,,2013-01-21 00:22:00,
2013-01-20 18:33:00,17.0,-18.0,30.42,West,270,0.0,7.0,19,0.00,,,0.00,,2013-01-21 00:33:00,
2013-01-20 18:43:00,17.0,-18.0,30.42,West,270,0.0,7.0,19,0.00,,,0.00,,2013-01-21 00:43:00,
2013-01-20 18:53:00,17.0,-18.0,30.42,West,270,0.0,3.0,19,0.00,,,0.00,,2013-01-21 00:53:00,
2013-01-20 19:03:00,17.0,-18.0,30.42,WSW,248,4.0,7.0,19,0.00,,,0.00,,2013-01-21 01:03:00,
2013-01-20 19:13:00,17.0,-18.0,30.42,WSW,248,4.0,7.0,19,0.00,,,0.00,,2013-01-21 01:13:00,
2013-01-20 19:23:00,17.0,-18.0,30.42,SSW,203,2.0,3.0,19,0.00,,,0.00,,2013-01-21 01:23:00,
2013-01-20 19:33:00,17.0,-18.0,30.42,SSW,203,2.0,3.0,19,0.00,,,0.00,,2013-01-21 01:33:00,
2013-01-20 19:43:00,17.0,-18.0,30.42,SSW,203,2.0,3.0,19,0.00,,,0.00,,2013-01-21 01:43:00,
2013-01-20 19:53:00,16.0,-19.0,30.41,West,269,2.0,6.0,19,0.00,,,0.00,,2013-01-21 01:53:00,
2013-01-20 20:03:00,16.0,-19.0,30.40,WSW,248,0.0,6.0,19,0.00,,,0.00,,2013-01-21 02:03:00,
2013-01-20 20:12:00,16.0,-19.0,30.40,WSW,248,0.0,6.0,19,0.00,,,0.00,,2013-01-21 02:12:00,
2013-01-20 20:23:00,16.0,-19.0,30.40,WSW,248,3.0,3.0,19,0.00,,,0.00,,2013-01-21 02:23:00,
2013-01-20 20:33:00,16.0,-19.0,30.39,SW,225,3.0,7.0,19,0.00,,,0.00,,2013-01-21 02:33:00,
2013-01-20 20:43:00,16.0,-19.0,30.39,SW,225,3.0,7.0,19,0.00,,,0.00,,2013-01-21 02:43:00,
2013-01-20 20:53:00,16.0,-19.0,30.39,WSW,248,3.0,8.0,19,0.00,,,0.00,,2013-01-21 02:53:00,
2013-01-20 21:03:00,15.0,-20.0,30.38,WSW,248,0.0,7.0,19,0.00,,,0.00,,2013-01-21 03:03:00,
2013-01-20 21:12:00,15.0,-20.0,30.38,WSW,248,0.0,7.0,19,0.00,,,0.00,,2013-01-21 03:12:00,
2013-01-20 21:23:00,15.0,-17.0,30.39,West,270,5.0,9.0,22,0.00,,,0.00,,2013-01-21 03:23:00,
2013-01-20 21:33:00,15.0,-15.0,30.38,WNW,292,0.0,5.0,24,0.00,,,0.00,,2013-01-21 03:33:00,
2013-01-20 21:43:00,15.0,-15.0,30.38,WNW,292,0.0,5.0,24,0.00,,,0.00,,2013-01-21 03:43:00,
2013-01-20 21:53:00,15.0,-11.0,30.38,West,260,2.0,2.0,30,0.00,,,0.00,,2013-01-21 03:53:00,
2013-01-20 22:03:00,15.0,-11.0,30.37,West,262,2.0,5.0,30,0.00,,,0.00,,2013-01-21 04:03:00,
2013-01-20 22:12:00,15.0,-11.0,30.37,West,262,2.0,5.0,30,0.00,,,0.00,,2013-01-21 04:12:00,
2013-01-20 22:23:00,15.0,-9.0,30.37,West,264,0.0,0.0,32,0.00,,,0.00,,2013-01-21 04:23:00,
2013-01-20 22:32:00,15.0,-9.0,30.37,SW,232,1.0,1.0,33,0.00,,,0.00,,2013-01-21 04:32:00,
2013-01-20 22:42:00,15.0,-9.0,30.37,SW,232,1.0,1.0,33,0.00,,,0.00,,2013-01-21 04:42:00,
2013-01-20 22:53:00,15.0,-10.0,30.37,WNW,292,0.0,3.0,31,0.00,,,0.00,,2013-01-21 04:53:00,
2013-01-20 23:03:00,15.0,-11.0,30.36,WSW,248,0.0,0.0,30,0.00,,,0.00,,2013-01-21 05:03:00,
2013-01-20 23:12:00,15.0,-11.0,30.36,WSW,248,0.0,0.0,30,0.00,,,0.00,,2013-01-21 05:12:00,
2013-01-20 23:22:00,15.0,-13.0,30.36,West,271,2.0,3.0,27,0.00,,,0.00,,2013-01-21 05:22:00,
2013-01-20 23:33:00,15.0,-16.0,30.36,West,270,0.0,7.0,23,0.00,,,0.00,,2013-01-21 05:33:00,
2013-01-20 23:42:00,15.0,-16.0,30.36,West,270,0.0,7.0,23,0.00,,,0.00,,2013-01-21 05:42:00,
2013-01-20 23:53:00,14.0,-16.0,30.35,WNW,292,0.0,0.0,24,0.00,,,0.00,,2013-01-21 05:53:00,